RH
24 24 24 24 25 25 26 26 27 28 28 29 29 29 29 28 26 24 22 21 20 19 19 19 17 12 8 7 7 6 7 8 9 9 6 9 11 10 7 5 4 2 3 2 3 4 5 8 8 11 10 14 17 23 57 79 74 74 78 71 63 57 53 56 53 50 50 43 42 43 47 50 46 49 53 54 58 66 70 69 71 74 72 60 54 53 52 53
18 19 19 21 21 22 23 24 25 26 27 27 27 28 28 29 28 27 25 22 21 20 19 20 19 17 13 8 7 6 6 6 7 7 6 10 10 9 10 7 5 3 2 2 3 4 5 6 7 9 9 18 33 36 47 66 70 67 70 66 58 55 51 53 56 58 58 47 43 44 43 47 46 46 52 53 56 63 66 71 78 79 76 64 54 53 52 52
11 12 13 14 15 17 18 20 21 23 24 26 27 27 27 27 28 28 27 25 23 21 20 20 20 19 17 12 8 6 6 6 5 5 7 12 11 9 10 8 7 4 2 3 2 3 4 5 6 6 12 29 49 56 51 58 66 61 60 59 57 57 50 52 58 58 62 58 46 43 44 45 46 45 49 52 53 60 63 71 82 71 54 52 50 50 52 52
6 6 7 8 8 10 11 13 15 17 20 21 24 25 26 26 26 27 27 27 25 23 22 21 21 19 19 16 11 8 5 5 4 4 6 11 10 9 10 8 7 5 3 2 2 4 3 7 13 17 32 43 52 62 56 54 62 59 54 53 52 56 51 52 56 53 61 65 51 44 45 45 45 45 50 54 52 58 61 67 83 70 41 39 45 49 51 51
3 3 3 4 4 5 5 7 8 10 13 15 18 20 23 25 25 26 26 27 26 26 25 22 22 19 19 18 15 11 5 9 10 6 6 8 9 9 9 9 8 5 3 3 2 3 5 18 35 45 59 57 50 58 55 50 56 56 52 50 51 54 50 49 51 51 53 56 54 47 43 47 47 45 50 56 53 54 58 63 76 64 38 35 40 47 51 50
2 2 2 2 2 3 3 3 4 5 7 8 11 13 17 20 23 25 25 26 26 26 26 25 23 20 19 19 18 13 8 14 16 9 8 10 9 9 9 9 10 7 6 3 2 11 19 34 55 64 70 63 52 52 49 48 52 52 49 48 51 51 48 49 49 51 50 49 52 49 46 49 48 46 49 53 53 53 59 63 64 53 39 37 38 44 49 49
3 3 2 3 2 2 2 2 3 3 3 4 6 7 10 13 17 21 23 25 25 26 25 26 25 22 21 18 18 17 11 10 10 9 9 10 9 9 9 8 11 8 8 3 2 28 42 43 59 68 69 62 52 48 44 46 49 50 47 44 49 49 47 49 49 51 52 50 48 47 47 46 47 49 48 49 50 51 60 65 58 48 41 38 37 41 47 49
3 3 3 3 3 3 3 3 3 3 3 3 3 4 5 7 10 14 18 21 24 25 25 25 26 24 23 20 19 18 13 8 7 9 7 8 8 9 9 7 11 9 9 5 2 36 53 46 57 66 66 58 47 43 41 43 44 47 47 43 46 48 47 49 52 52 51 50 47 45 42 41 47 48 45 47 49 49 58 65 56 45 40 38 36 36 42 49
3 3 3 3 3 3 3 3 3 3 3 3 3 3 3 3 5 8 11 15 19 23 25 25 25 25 24 23 21 17 15 11 7 7 5 7 7 8 9 7 10 9 10 6 4 38 54 46 55 59 58 54 44 39 37 39 41 43 44 43 43 44 47 52 54 53 50 48 45 43 40 39 43 42 43 46 48 50 56 67 59 41 37 42 40 35 37 45
2 2 2 2 3 3 3 3 3 3 4 4 4 3 3 3 3 4 6 8 12 16 22 24 24 25 25 25 23 17 17 16 10 7 5 6 6 7 9 8 10 9 11 7 8 38 50 43 49 51 52 51 42 37 34 36 37 40 41 41 42 40 43 48 50 51 51 48 44 43 40 38 38 37 41 45 48 51 54 67 66 47 39 40 40 37 35 40
2 2 2 2 2 2 2 2 3 3 3 4 4 4 4 4 3 3 3 4 6 9 14 20 23 24 24 25 23 19 19 21 17 11 8 6 6 8 9 9 10 9 11 8 11 37 45 39 43 45 48 47 40 36 34 34 35 38 39 40 43 41 39 40 43 46 47 46 43 43 40 38 37 33 36 41 46 50 52 62 70 66 55 42 37 39 36 36
2 1 2 2 2 2 2 2 2 2 2 3 3 4 4 4 4 3 3 3 3 5 7 12 19 22 24 23 21 23 23 21 20 18 15 10 6 7 11 12 10 11 12 7 18 41 42 37 39 42 45 41 35 34 33 33 33 35 38 40 42 42 40 37 37 41 43 45 44 42 40 38 38 33 32 39 44 47 50 58 66 72 72 60 44 39 39 36
2 1 1 1 1 2 1 2 2 2 2 2 2 3 3 4 4 4 3 4 3 3 4 6 11 16 22 21 20 25 25 22 21 20 18 12 7 7 11 14 12 14 13 13 33 48 41 36 35 37 40 36 31 29 32 34 33 33 36 40 41 40 41 39 38 38 39 42 43 42 38 35 37 36 32 37 43 44 49 56 61 69 76 77 60 41 39 38
1 1 1 1 1 1 1 1 1 1 1 1 2 2 2 3 3 4 4 3 3 3 3 3 5 9 16 19 21 25 25 23 20 19 17 11 9 10 10 14 15 16 13 20 46 53 41 37 33 32 35 34 30 27 29 33 33 33 36 40 41 37 36 38 38 36 36 38 42 41 36 34 34 35 33 35 41 43 49 55 60 69 73 79 73 51 42 39
1 1 1 1 1 1 1 1 1 1 1 1 1 1 2 2 2 3 3 3 4 3 3 2 3 5 10 14 18 22 24 24 20 17 18 11 10 15 13 11 15 18 14 24 48 52 42 38 33 31 32 31 31 29 28 28 30 33 35 38 38 35 33 34 34 33 34 34 38 38 33 32 31 31 32 34 40 42 50 57 61 68 69 74 72 52 44 43
2 2 1 2 1 1 1 1 1 1 1 1 1 1 1 1 1 2 2 3 3 2 3 3 3 3 6 11 16 20 22 23 22 19 19 15 10 18 23 16 18 24 22 29 44 48 44 39 34 32 31 30 29 30 32 28 27 29 31 33 32 32 31 29 27 27 30 32 34 35 32 31 29 29 30 34 41 42 48 57 58 62 64 67 68 51 42 44
2 2 2 2 1 2 2 1 1 1 1 1 1 1 1 1 1 1 2 2 2 3 3 2 3 3 4 8 12 18 21 22 25 22 20 19 11 22 36 29 28 36 35 36 43 46 44 38 36 34 31 30 27 28 32 31 28 26 26 29 29 29 28 26 24 22 25 29 31 32 31 29 29 30 31 35 42 43 44 50 54 60 61 64 70 56 41 42
2 2 2 2 2 2 2 1 2 1 1 1 1 1 1 1 1 1 1 1 3 1 2 4 2 2 10 16 13 17 22 22 25 24 22 21 13 27 48 40 38 46 44 42 41 41 43 39 37 35 31 30 28 27 30 30 28 26 25 25 27 27 25 22 21 20 22 26 28 30 29 28 29 31 34 36 40 43 42 45 51 56 57 64 66 50 38 40
2 3 2 2 2 2 2 2 2 1 2 1 1 1 1 1 1 2 1 1 3 1 10 24 15 7 18 25 21 22 24 22 26 25 23 23 14 27 50 47 45 49 44 41 38 39 44 42 38 36 32 29 29 29 30 28 26 25 23 21 23 24 22 20 19 19 22 24 27 28 27 27 28 30 35 37 38 42 43 46 51 51 55 65 64 48 39 38
3 3 2 3 3 2 2 2 2 2 2 1 1 1 1 1 1 2 2 1 3 1 9 24 18 8 13 19 24 31 29 24 27 26 25 24 17 27 46 46 45 46 41 38 38 41 45 42 37 34 32 29 30 32 32 28 24 23 21 18 19 19 18 18 17 18 21 23 25 25 26 26 27 28 32 37 39 40 43 48 51 49 53 61 61 54 47 40
3 3 3 3 2 3 2 2 3 2 2 2 2 1 1 2 1 2 2 1 3 2 2 7 10 8 8 10 19 29 30 27 28 26 25 24 20 28 42 43 43 42 38 39 40 43 43 40 36 33 31 30 29 31 31 28 23 21 19 15 15 15 16 16 16 18 20 21 23 24 25 25 27 28 29 35 39 39 40 46 50 49 51 56 57 56 50 46
3 3 3 3 3 3 3 2 3 2 2 2 1 2 2 2 2 1 2 2 1 3 2 3 7 7 5 7 12 21 26 28 29 27 23 24 22 27 38 43 43 40 40 42 39 39 39 36 35 32 30 30 28 28 28 27 25 22 19 15 13 13 14 16 16 17 19 20 21 23 25 24 25 27 27 30 34 36 35 39 48 48 47 57 58 52 46 43
3 4 3 3 4 3 3 3 3 3 2 2 2 3 2 2 3 2 2 2 2 2 1 1 3 4 4 5 9 16 19 20 26 28 23 23 23 24 35 42 41 40 41 41 34 31 32 31 32 32 30 28 27 26 24 24 26 24 20 15 12 12 13 14 15 15 17 19 19 21 23 23 23 24 25 26 27 31 32 33 43 46 44 53 55 48 45 40
4 4 3 4 4 3 4 3 3 3 2 3 4 3 3 3 2 2 2 1 1 2 2 2 1 3 3 3 6 11 13 11 19 29 26 23 23 22 29 38 39 37 37 36 29 25 26 24 26 28 27 25 25 24 23 23 24 24 22 16 12 12 12 12 13 14 16 18 19 20 21 21 22 22 22 24 23 25 29 31 37 44 44 48 48 45 45 40
4 4 4 4 4 4 4 3 3 3 3 5 4 3 3 2 2 4 3 4 2 -1 1 3 2 2 2 3 4 4 8 9 11 24 29 24 23 22 23 32 35 33 33 32 28 23 22 21 21 23 23 22 22 22 22 23 23 23 22 18 14 12 12 12 11 12 15 18 20 20 20 20 21 22 21 21 22 21 26 30 33 38 42 44 45 43 42 41
5 5 5 5 5 5 5 5 4 3 4 5 3 4 3 2 5 2 6 20 18 7 8 9 8 7 3 2 3 3 9 10 5 17 30 26 22 22 21 26 30 29 29 30 27 23 20 19 20 21 22 21 21 21 21 23 24 22 20 18 15 13 12 11 11 12 13 15 18 19 20 20 19 21 21 20 21 20 23 27 29 33 38 42 44 44 42 42
7 6 6 7 6 5 6 4 4 3 5 5 3 4 3 3 4 0 20 46 32 15 17 16 14 15 11 6 4 5 12 13 6 11 26 28 23 21 20 21 25 27 26 27 26 24 21 19 18 20 21 21 20 20 21 22 22 20 17 15 14 14 13 11 10 11 11 12 14 17 19 19 18 18 19 19 20 20 20 22 24 28 33 38 43 47 46 42
9 8 7 8 6 6 6 4 5 4 4 5 4 5 3 4 4 7 39 54 26 16 22 18 18 18 17 18 11 7 12 17 13 8 19 29 25 21 19 18 20 23 24 24 23 22 21 19 17 18 19 19 19 19 21 22 20 17 15 14 13 13 12 12 11 10 11 11 12 14 17 18 18 17 18 19 19 19 19 20 21 24 29 34 38 44 47 44
11 10 8 8 7 6 5 4 5 2 3 5 4 6 4 3 7 19 47 47 16 15 23 18 20 20 21 25 19 14 13 17 19 12 14 27 27 22 20 17 17 19 21 22 21 20 20 19 17 17 17 18 17 18 19 19 17 16 14 12 11 11 10 10 10 10 10 11 12 11 12 14 14 16 17 17 17 18 18 18 20 21 26 31 33 37 44 46
13 11 10 8 6 6 4 5 7 4 5 4 4 7 3 4 18 33 49 43 17 14 22 22 25 24 25 25 21 21 18 15 19 18 17 24 28 26 22 19 16 16 18 20 20 19 18 18 18 16 16 16 17 16 16 17 15 14 14 12 10 9 9 9 9 9 9 11 12 10 10 12 13 14 16 15 16 18 17 17 19 20 25 30 32 33 40 45
14 12 11 8 6 6 4 5 7 5 4 6 6 6 5 15 31 35 36 30 19 21 28 32 34 32 30 28 24 24 23 19 18 19 21 23 27 30 26 21 17 15 16 18 19 19 18 17 17 17 16 16 17 16 14 14 14 13 13 12 10 8 7 9 8 7 10 10 10 10 11 12 13 14 14 13 14 17 17 18 19 20 23 29 32 33 40 44
16 14 11 8 6 6 5 5 5 4 5 7 5 6 17 30 33 30 27 21 21 32 38 39 41 39 38 36 31 26 24 23 19 18 23 24 26 31 29 23 19 17 15 16 18 18 18 17 16 17 17 16 17 17 14 13 13 14 14 11 10 8 10 13 12 9 9 9 8 9 10 10 12 12 13 13 13 16 18 19 18 19 21 27 31 33 40 43
18 15 11 10 7 5 6 5 5 8 6 6 12 23 35 38 31 27 26 23 30 41 44 43 43 42 41 37 33 29 25 23 20 18 22 24 25 28 30 25 20 18 16 15 17 17 17 17 16 16 17 17 17 17 15 13 14 14 13 11 9 10 15 19 17 13 12 9 7 8 8 9 10 11 12 12 12 15 17 18 18 18 20 26 32 35 42 44
20 16 14 10 6 6 7 6 9 9 7 13 29 40 40 34 27 23 23 31 40 42 41 43 42 41 40 34 31 30 26 24 21 19 20 24 25 26 28 27 22 19 17 16 15 16 17 17 16 16 16 17 17 16 15 13 14 14 12 11 10 11 16 18 16 14 14 11 8 8 8 9 10 9 10 10 11 14 15 16 17 19 23 28 35 41 43 43
20 17 17 11 14 18 10 8 10 10 19 36 41 37 33 28 25 29 36 43 45 41 39 40 37 37 36 32 29 27 25 24 22 21 21 22 24 24 25 26 24 21 18 16 15 15 16 15 15 15 15 17 16 15 16 14 14 14 11 10 10 11 14 14 13 12 11 10 9 9 9 9 8 8 9 8 9 11 12 15 15 18 25 29 35 41 40 38
21 20 21 17 25 24 9 7 11 19 44 59 49 36 31 29 33 42 47 46 44 43 40 37 34 33 31 28 26 22 24 25 22 21 22 22 23 23 24 25 24 23 20 18 16 15 16 15 14 15 14 16 16 15 17 15 13 13 11 10 10 11 11 12 12 10 9 10 10 9 8 8 8 7 8 8 8 9 10 13 14 15 22 26 29 37 40 37
23 23 27 30 34 21 6 8 13 35 63 62 51 48 41 38 43 46 44 41 43 44 40 36 34 33 31 30 28 26 29 30 25 21 18 20 22 21 21 23 23 24 22 20 18 16 16 15 14 14 14 14 16 16 17 15 14 13 12 11 10 10 11 11 13 12 11 12 10 8 8 9 9 8 8 9 9 10 9 11 13 13 18 23 25 33 38 35
25 29 42 52 48 23 7 11 20 47 67 50 40 46 44 42 42 42 43 40 40 44 41 34 33 34 34 33 35 35 35 34 33 29 21 17 20 20 21 23 22 23 23 21 20 17 16 15 14 13 14 14 15 17 18 16 14 13 12 12 11 11 11 11 13 14 14 15 12 10 9 9 9 9 9 9 9 10 10 10 12 12 15 20 23 30 35 31
30 39 55 62 53 23 6 20 39 56 57 38 35 39 36 37 38 39 42 39 42 48 44 40 39 36 33 35 39 40 39 40 41 42 33 21 21 25 24 24 24 24 25 23 21 19 17 15 14 13 13 13 15 17 18 17 15 14 12 12 11 11 12 12 13 13 14 16 15 13 12 9 9 9 9 10 10 11 12 10 11 12 13 17 21 28 32 29
39 43 53 58 51 22 10 34 52 50 40 32 39 42 34 36 39 38 38 40 47 51 49 50 48 41 38 40 43 47 52 55 51 50 44 31 28 31 28 28 31 31 30 27 23 20 19 16 15 14 12 13 15 16 17 17 15 14 12 12 12 12 11 12 12 11 12 15 15 14 13 9 8 9 10 10 11 12 13 11 12 12 13 16 21 26 29 25
48 50 52 54 40 11 15 44 47 38 36 33 36 40 36 40 42 38 38 43 47 50 54 56 51 49 49 47 50 57 61 61 56 54 50 39 36 38 35 35 38 36 32 29 25 22 19 17 16 16 14 13 13 15 16 16 14 13 12 12 13 12 11 11 12 12 10 11 13 12 12 10 7 8 9 10 11 12 13 12 12 12 13 16 20 23 25 22
68 69 60 57 42 18 26 44 37 33 38 34 35 39 38 42 42 38 41 45 46 51 57 57 51 50 49 51 60 65 64 64 61 59 55 48 47 48 45 42 40 37 35 32 28 23 20 19 17 18 17 14 12 13 15 15 14 13 11 11 12 12 11 11 12 12 10 10 10 10 11 11 9 8 8 8 11 12 12 12 12 13 12 14 18 22 24 23
80 72 56 57 53 40 41 44 38 37 36 37 45 46 40 43 43 41 45 47 48 52 55 57 56 54 54 62 69 68 67 64 57 54 58 60 61 57 51 46 42 39 38 36 32 27 24 22 20 22 24 19 13 12 14 15 14 13 11 10 11 11 11 11 11 11 11 10 9 9 11 12 12 10 9 10 11 12 12 11 12 13 12 12 14 17 21 25
80 65 52 57 56 49 46 43 43 46 43 45 55 53 47 46 47 48 51 50 49 51 54 59 63 63 64 69 68 65 69 68 59 62 71 74 74 68 57 51 46 42 41 41 39 35 31 27 22 23 28 25 16 12 14 15 14 13 12 10 10 11 11 11 10 10 12 11 9 9 10 11 13 11 11 11 10 10 12 12 12 13 12 13 13 14 18 24
86 75 63 65 61 54 50 44 44 49 50 54 61 60 53 48 49 55 56 54 53 55 59 64 68 70 69 69 69 67 71 74 71 74 76 71 70 68 61 55 51 46 43 43 42 41 40 36 29 27 29 25 19 14 13 15 15 13 12 10 10 11 10 10 10 10 12 12 10 9 8 11 15 13 12 11 9 10 11 10 12 12 12 13 14 15 17 20
90 89 83 80 68 56 55 51 45 46 48 52 60 65 59 52 54 58 58 60 61 61 65 65 66 72 74 71 72 72 71 73 74 79 81 74 69 66 59 54 53 49 45 43 42 44 46 42 36 33 29 24 25 25 19 15 16 14 12 10 9 10 10 10 10 11 12 13 13 10 9 15 18 15 12 9 8 10 10 11 14 13 14 19 18 14 18 21
88 95 97 95 80 67 65 61 57 57 52 47 57 69 68 61 58 57 58 63 63 61 65 64 62 70 76 73 77 80 77 78 80 80 78 77 76 69 58 57 58 53 47 42 40 42 45 42 37 34 31 28 32 33 27 22 20 15 12 11 9 10 10 10 11 11 11 14 15 11 12 18 19 15 12 11 10 11 9 10 15 16 19 27 23 15 20 28
91 95 98 99 92 83 79 78 79 75 58 48 60 71 69 66 64 60 58 62 63 60 64 68 67 71 75 76 81 85 83 84 83 75 69 74 77 67 58 60 59 50 45 42 39 41 45 45 40 35 32 30 30 29 28 28 25 19 14 11 9 10 10 10 11 11 12 15 15 13 15 17 16 13 12 12 12 13 12 12 17 20 22 27 26 21 25 33
93 96 96 98 94 85 81 87 94 85 64 56 63 69 72 73 70 64 59 61 65 63 66 73 73 72 75 73 75 83 89 90 85 75 73 78 78 71 65 63 57 47 48 49 42 42 47 47 43 37 31 28 28 27 27 29 27 24 19 13 9 10 10 10 11 11 12 15 15 14 17 18 16 14 12 13 14 15 16 18 20 21 21 22 23 22 23 29
95 98 97 98 93 81 78 87 95 90 76 65 60 65 75 77 71 66 62 61 66 67 70 75 73 73 76 73 72 79 87 90 86 81 82 84 83 82 79 74 65 54 53 56 49 46 49 46 43 40 34 31 31 29 28 29 28 26 23 17 11 10 11 11 11 11 12 14 14 14 18 19 17 15 14 14 16 15 17 20 21 20 20 19 19 17 19 25
96 99 99 99 91 81 80 83 88 92 86 73 65 68 73 73 70 68 64 63 69 71 72 77 77 74 74 74 73 75 77 79 80 85 90 88 84 83 80 77 73 64 59 59 54 51 50 45 42 41 38 36 35 30 26 27 27 27 26 21 14 12 12 11 11 11 11 14 14 14 16 18 17 17 17 16 17 18 19 21 21 21 20 20 19 18 20 25
97 99 100 101 93 83 82 82 84 90 89 79 75 76 75 74 73 70 67 69 73 72 71 76 78 74 73 75 76 79 81 78 74 77 82 81 77 79 79 75 73 74 69 61 55 53 51 48 44 41 38 37 35 30 27 27 29 29 26 21 18 16 14 11 11 11 11 12 13 14 17 18 17 18 20 20 21 22 22 23 23 23 22 21 22 23 22 23
Wind_Speed
19 19 19 19 20 20 20 20 21 21 21 21 21 20 20 19 19 19 19 19 18 19 18 18 18 17 16 16 17 19 21 22 23 25 19 13 15 16 14 12 13 15 19 22 23 24 23 22 20 18 17 15 15 12 11 13 12 11 11 10 12 9 4 2 3 3 2 3 5 5 6 7 8 9 11 13 13 13 14 11 9 7 6 10 11 12 17 22
18 18 18 18 19 19 19 19 20 20 21 21 21 20 20 20 20 20 20 19 18 18 18 19 18 18 17 16 16 17 19 20 23 21 10 11 18 16 14 13 12 13 17 20 22 23 22 21 20 18 18 16 15 14 11 13 14 13 12 11 11 10 5 4 4 2 3 2 4 5 5 7 8 9 11 12 12 14 15 13 14 15 11 11 11 12 16 20
18 18 18 18 18 18 18 18 19 19 20 20 20 20 20 20 20 20 20 20 19 17 17 18 18 19 18 16 16 16 16 18 20 13 6 13 19 15 15 14 13 13 14 17 19 20 20 19 18 18 18 16 15 15 13 13 14 14 13 12 13 12 9 6 4 4 5 3 4 6 5 7 8 7 9 11 11 13 14 14 16 16 12 12 13 13 15 18
18 18 19 19 18 18 18 18 18 18 19 19 19 20 19 20 20 20 20 20 19 18 17 18 18 19 18 17 16 15 16 16 18 14 11 17 18 15 15 13 12 12 12 15 17 19 18 17 17 16 17 17 15 15 15 15 14 14 13 14 15 11 9 7 7 4 3 3 2 4 6 7 6 6 7 11 12 11 11 12 16 13 9 12 13 14 15 17
19 19 19 19 19 19 19 19 18 18 19 19 18 19 19 20 20 20 20 20 20 18 18 18 19 20 19 18 17 16 14 11 15 15 12 16 18 17 16 13 11 10 11 14 17 18 18 16 15 16 18 18 16 17 18 17 16 14 14 14 15 13 10 10 10 4 4 2 0 2 9 8 6 7 6 9 10 10 11 12 14 10 6 10 11 12 14 16
20 20 20 19 19 19 19 19 19 19 19 19 18 18 18 19 19 20 20 20 20 19 18 18 19 20 19 19 18 16 13 10 14 13 7 13 19 19 17 15 13 12 12 15 17 18 18 17 18 20 21 19 18 19 18 17 18 17 15 14 15 15 12 11 10 5 5 3 5 3 6 8 7 7 6 7 6 7 13 14 13 9 8 10 9 10 12 14
21 21 21 21 21 20 20 20 19 19 19 19 19 18 18 19 19 19 20 20 20 19 19 18 20 20 19 21 19 18 16 13 17 18 12 12 16 19 19 17 16 15 14 15 18 19 20 20 22 22 21 20 19 19 18 17 19 19 17 14 14 13 13 12 10 8 7 6 7 2 2 7 7 8 8 7 6 8 13 14 12 8 10 13 12 12 11 12
23 23 23 23 22 22 22 22 21 21 20 20 19 19 19 19 19 19 19 19 19 19 19 19 20 20 20 21 20 20 15 8 13 20 18 15 15 18 20 19 18 17 16 15 17 20 21 22 23 23 22 21 18 18 18 18 19 21 20 15 13 12 13 14 13 10 10 9 8 4 5 7 9 10 10 10 9 10 13 14 12 7 10 13 13 14 12 12
24 24 24 24 24 24 24 24 23 23 22 21 20 19 19 19 19 18 19 19 19 19 19 20 20 20 20 20 22 21 12 7 15 20 18 15 16 16 18 19 19 19 17 15 16 20 23 23 24 24 21 20 18 18 18 19 21 20 21 19 16 14 12 15 15 10 8 10 10 8 8 7 9 9 8 12 11 11 14 14 12 7 8 10 11 13 13 13
24 25 25 25 25 25 25 24 25 24 24 24 22 21 20 20 19 19 19 19 18 18 18 20 21 21 21 20 23 20 10 10 17 21 19 16 16 15 16 18 19 20 18 17 17 21 24 22 23 22 20 19 18 19 19 21 21 18 19 19 20 18 14 16 16 11 10 13 13 11 10 9 9 8 8 14 13 13 15 15 14 10 7 9 9 11 13 14
24 25 25 25 25 25 26 25 25 25 25 25 24 23 21 21 20 19 19 19 19 18 18 19 21 22 21 22 24 19 13 12 16 20 21 18 15 14 15 16 18 19 19 19 18 21 23 21 19 20 21 21 18 19 21 22 20 18 18 17 19 21 19 18 16 14 14 15 14 13 12 10 11 11 10 14 16 16 15 17 18 15 11 10 9 9 12 14
24 25 25 26 26 26 26 26 26 26 26 26 26 24 23 22 21 20 20 20 19 19 18 19 20 21 22 25 21 14 14 16 19 19 18 21 17 13 15 16 16 17 18 18 18 21 22 20 19 20 21 19 18 17 18 21 21 20 19 19 18 18 21 21 19 17 16 16 14 13 14 13 14 13 11 15 18 17 17 19 19 18 16 12 10 8 11 15
25 25 26 26 26 26 26 26 26 26 26 27 27 26 25 24 23 22 21 21 20 19 19 19 20 21 24 26 16 12 18 19 22 23 20 22 19 14 17 18 16 16 17 17 17 20 21 21 21 22 21 18 19 17 12 14 19 21 20 20 19 18 21 22 21 20 19 18 15 14 16 15 16 15 12 15 18 18 20 20 18 19 19 16 13 8 9 14
26 26 26 27 27 27 27 27 27 26 27 27 27 27 26 25 24 23 22 22 21 20 20 20 20 21 25 25 15 16 22 20 24 25 22 22 18 17 19 19 18 18 17 17 17 18 20 21 21 22 22 21 20 18 16 14 16 20 21 21 22 21 21 19 21 22 22 21 17 17 18 15 15 17 16 16 19 20 20 20 19 20 19 19 16 10 9 11
28 28 28 28 28 28 28 28 28 27 27 27 28 28 27 26 25 25 24 23 22 22 21 21 21 22 26 23 17 21 22 21 25 23 21 22 19 18 18 21 21 19 18 17 18 18 19 20 22 23 23 23 21 20 21 20 18 19 21 23 24 24 20 18 21 23 23 21 19 21 19 15 14 15 19 19 20 21 20 21 20 20 19 19 17 13 9 10
30 30 30 30 30 30 30 30 30 29 28 27 27 28 27 26 26 26 25 23 23 23 22 23 21 22 25 22 19 21 22 21 22 21 22 22 21 18 17 20 21 21 19 17 19 18 18 21 23 25 22 22 24 23 21 21 22 22 23 24 23 23 21 18 20 23 24 21 21 23 20 16 13 13 20 21 21 22 21 21 19 19 19 18 17 14 11 12
31 31 31 31 32 31 32 32 32 32 30 29 28 28 28 27 27 28 27 25 24 23 24 24 23 24 24 24 20 16 18 21 21 22 24 23 22 19 16 19 22 21 19 18 19 18 19 22 23 25 25 24 25 24 23 24 24 23 24 24 22 21 21 19 19 20 24 23 22 24 21 17 12 11 20 22 22 21 20 21 21 21 20 19 20 18 14 14
29 30 30 31 31 31 32 33 33 34 33 32 30 29 29 27 26 29 28 25 25 24 24 23 24 22 16 16 17 12 15 18 20 24 25 23 21 19 20 21 22 21 21 20 21 21 21 23 23 24 26 28 28 28 30 28 22 21 23 23 22 21 21 22 20 18 22 23 23 24 22 20 14 14 20 21 20 22 21 22 23 23 21 20 23 19 15 16
29 29 30 31 32 32 33 34 35 35 35 34 31 30 30 27 24 28 30 27 25 24 21 20 25 21 11 10 11 11 15 15 18 25 26 24 22 22 23 22 22 23 24 24 24 25 23 23 26 29 31 33 32 33 33 28 20 19 21 21 22 22 22 23 21 17 19 22 24 25 23 22 18 17 20 19 21 22 22 24 23 21 21 24 25 20 15 17
28 29 30 32 33 34 34 35 36 36 37 37 35 32 31 30 26 27 30 26 25 26 23 23 29 26 20 19 11 6 13 17 19 23 24 26 22 22 24 23 23 25 28 27 26 26 25 25 32 36 35 32 32 32 30 27 23 21 21 22 22 23 23 22 20 19 19 22 25 25 24 23 21 20 18 18 22 23 22 25 25 23 22 25 27 22 17 17
26 27 30 31 33 34 35 35 36 37 38 38 38 36 34 33 30 30 33 29 25 28 29 28 30 31 25 23 18 9 10 16 18 19 23 26 22 24 27 27 27 30 32 28 24 25 26 31 37 37 32 29 29 30 29 27 27 27 24 22 23 23 23 22 21 21 22 22 23 25 24 23 22 22 20 19 22 22 21 23 25 23 23 25 25 21 18 18
25 26 28 30 31 33 34 35 35 37 37 37 37 37 35 34 32 33 38 37 29 25 31 31 31 35 29 24 25 21 17 17 19 21 24 25 26 28 29 31 32 31 31 28 26 26 30 39 39 32 29 28 26 28 30 28 27 29 27 24 24 23 22 22 22 21 23 23 21 23 26 25 24 23 22 22 22 22 21 21 22 21 21 25 25 21 18 18
25 26 26 28 30 32 34 34 34 37 38 39 38 38 38 36 34 33 36 44 38 28 30 33 32 34 31 28 27 28 29 26 23 24 27 29 31 31 30 32 33 30 30 33 32 31 34 39 35 28 27 28 28 28 29 30 28 29 28 27 24 21 20 21 23 22 22 22 19 20 25 27 25 25 25 26 25 24 22 21 21 21 20 23 25 21 18 17
25 26 26 27 28 31 33 33 34 36 38 37 36 37 38 36 36 35 35 43 45 37 29 29 32 34 32 27 25 31 36 33 27 27 30 33 34 32 31 32 33 32 33 34 35 35 34 29 25 28 29 28 30 29 29 30 30 30 30 29 25 21 21 20 20 22 23 23 20 19 23 25 26 26 27 27 26 26 26 24 22 22 21 22 23 22 19 17
25 26 27 27 28 29 32 33 33 34 33 32 34 35 36 35 33 35 37 38 44 41 28 26 30 30 28 24 27 33 35 36 32 28 30 35 35 35 32 30 33 34 34 33 34 37 36 25 19 26 30 30 31 31 31 30 29 29 30 31 27 21 22 21 18 20 24 25 25 22 18 19 26 28 27 27 26 26 28 28 26 26 25 23 23 23 21 20
25 26 27 29 29 28 29 30 31 31 29 29 32 32 32 33 30 30 32 30 37 34 19 18 19 18 22 27 32 30 29 37 36 28 29 35 35 35 32 31 33 33 32 31 32 35 35 28 22 24 28 31 32 32 32 30 28 28 27 29 29 24 22 22 21 22 23 24 26 28 21 16 23 29 29 28 27 28 29 28 27 29 28 24 22 24 23 22
26 26 27 28 29 29 28 28 30 29 27 27 28 28 29 29 26 24 23 17 18 14 3 9 9 10 16 23 31 31 25 27 34 33 32 34 35 36 34 33 32 32 30 29 31 35 33 30 29 27 27 30 33 33 31 31 30 27 23 24 28 29 25 23 24 24 23 22 23 29 29 21 21 25 27 28 29 29 29 29 28 31 31 27 24 25 25 24
27 26 26 27 29 30 29 29 30 27 27 27 25 23 24 25 22 17 12 7 4 4 1 6 8 12 13 15 27 35 24 12 22 34 35 33 36 37 37 35 32 30 30 32 35 33 30 32 33 30 28 29 32 33 29 29 31 26 20 19 24 29 28 25 24 23 22 22 22 28 31 22 19 23 25 28 31 31 31 31 30 32 34 31 28 29 28 25
27 26 26 26 26 28 29 30 32 30 29 27 24 21 20 20 17 10 6 8 7 5 3 2 3 9 12 14 23 31 26 13 12 21 29 35 37 38 38 36 32 29 30 35 35 29 25 29 31 31 31 29 28 29 28 28 29 25 21 18 19 22 27 28 27 24 21 20 21 25 28 20 15 21 27 29 33 34 32 31 30 32 34 33 31 30 29 26
27 26 26 26 25 27 28 28 29 28 27 24 22 19 16 14 10 8 7 9 10 7 4 4 6 1 8 12 19 26 28 24 14 13 23 36 37 37 35 32 31 30 31 34 35 30 26 25 28 32 32 28 25 25 27 28 26 23 22 20 17 17 22 25 28 27 20 17 22 25 26 20 12 17 26 29 32 33 31 30 30 31 33 34 31 29 29 27
27 27 26 27 26 25 25 24 24 24 23 20 18 14 13 12 7 10 8 8 10 8 2 5 9 0 6 8 17 24 26 27 22 16 23 34 37 37 34 29 32 33 30 34 36 33 30 26 27 32 31 28 25 25 26 27 26 24 22 21 19 18 19 18 23 27 16 13 23 27 25 22 18 21 25 23 24 27 28 28 30 33 34 33 31 30 30 31
28 27 27 27 25 24 25 27 28 26 22 17 14 12 11 11 11 13 13 12 9 10 11 16 16 11 11 13 15 19 23 26 26 23 25 33 36 39 40 35 34 34 32 35 33 31 35 35 29 27 30 31 27 26 27 27 28 26 24 25 20 14 14 12 13 17 15 14 21 26 26 26 28 28 27 23 21 24 28 28 27 31 34 32 31 31 31 33
28 28 26 25 24 26 29 30 29 26 20 14 12 11 10 11 11 13 20 17 10 13 22 27 23 19 19 17 14 12 17 22 26 27 26 31 35 37 41 39 35 35 32 30 30 29 32 35 34 29 30 35 33 30 30 30 31 30 29 28 22 11 8 10 9 9 13 17 22 24 24 26 31 31 29 28 24 21 25 29 26 28 33 31 32 33 33 35
29 28 26 25 26 30 30 27 26 23 18 14 12 12 11 12 13 15 18 17 17 18 27 32 26 22 19 16 14 12 14 16 22 26 25 30 34 35 37 39 38 36 31 25 28 31 26 26 38 39 31 33 38 34 30 29 30 32 30 27 25 19 12 9 10 10 11 14 21 24 21 22 27 27 28 30 28 24 22 25 28 30 32 33 33 35 35 35
30 29 28 26 26 26 26 24 23 19 16 14 11 10 10 11 11 15 20 25 25 25 31 32 26 23 21 17 14 14 15 16 19 24 25 28 33 34 35 39 41 37 32 27 27 30 28 26 35 40 32 30 37 36 30 27 28 30 30 29 29 28 21 13 12 16 16 12 15 23 25 25 24 22 23 25 29 32 27 23 27 31 34 36 36 36 35 34
30 30 27 23 22 21 23 23 20 15 14 13 10 8 10 13 13 23 25 26 27 28 32 28 19 18 20 17 14 13 15 18 19 24 27 28 31 34 31 33 39 40 37 32 27 26 28 27 28 34 35 31 32 36 34 29 26 28 32 34 31 28 24 17 13 17 18 11 11 19 24 25 23 21 22 23 25 30 32 29 27 29 34 34 34 38 37 33
29 28 25 21 20 21 23 22 19 15 12 10 10 10 14 18 17 19 19 22 25 25 27 24 18 17 19 19 19 20 23 19 15 20 28 29 28 33 33 31 33 39 40 36 29 25 23 25 25 32 39 36 30 33 37 33 26 27 33 33 28 24 24 20 12 10 13 9 11 19 22 22 21 19 20 24 25 25 30 32 29 28 32 31 32 40 40 34
26 25 22 19 19 22 22 19 16 14 10 10 11 12 14 16 18 17 16 19 22 21 22 21 20 20 22 24 26 27 29 24 20 21 22 28 25 24 27 29 28 34 41 39 34 28 23 23 25 31 37 36 32 31 35 37 32 27 27 29 28 23 22 23 15 8 9 7 7 14 18 19 21 21 21 24 27 25 26 31 32 29 29 29 34 43 43 35
23 19 15 17 22 22 20 15 13 13 9 11 12 12 13 14 16 16 15 16 17 18 19 18 20 23 25 26 28 28 28 26 27 29 21 18 19 17 20 22 22 24 31 38 40 35 27 22 21 28 35 35 34 35 37 39 38 31 24 27 31 25 21 24 20 13 10 7 6 9 12 14 17 20 20 20 25 25 24 27 32 31 27 28 35 42 42 36
21 15 8 21 27 21 16 13 11 10 10 12 12 12 13 14 14 14 14 15 15 16 17 17 20 23 25 26 27 28 29 27 25 26 25 17 6 9 19 17 12 14 22 31 38 38 33 27 21 23 33 38 38 40 40 38 39 38 30 27 30 27 23 22 22 21 15 7 5 6 8 12 18 19 20 19 22 24 22 24 30 31 27 28 34 38 38 34
21 13 9 21 23 15 12 12 8 9 9 11 12 13 14 14 15 15 14 15 15 14 15 17 19 21 24 25 24 26 29 29 26 25 27 22 17 10 8 4 3 10 18 24 32 38 36 30 24 22 29 39 42 40 39 37 38 40 35 29 28 29 26 18 15 22 22 13 8 6 5 6 9 15 19 17 18 21 20 21 26 30 29 28 31 32 33 31
19 13 14 17 19 17 14 10 9 9 10 12 13 14 15 15 16 15 14 14 14 14 14 15 17 19 21 22 23 25 27 29 28 26 28 26 20 17 17 16 11 4 6 11 23 33 32 27 24 24 25 31 36 35 34 34 35 37 36 31 27 28 30 21 13 17 22 19 14 11 8 1 4 9 15 12 12 17 19 18 22 27 29 29 29 30 31 30
18 12 13 13 22 24 17 12 11 10 10 13 14 14 14 14 15 14 14 14 13 14 14 14 15 17 19 20 21 23 24 28 30 25 26 27 17 14 20 22 15 6 6 8 14 22 26 27 24 21 21 24 30 33 32 31 32 35 38 36 30 28 30 25 17 17 19 20 18 11 7 3 6 9 13 9 8 13 17 18 20 24 26 26 28 31 33 32
22 13 10 14 28 24 14 12 13 12 12 14 16 15 13 13 13 13 14 15 14 14 15 15 15 17 20 20 20 21 20 24 27 21 24 26 19 17 18 18 15 11 10 7 11 14 17 24 24 17 14 17 23 27 28 32 35 35 37 39 35 30 29 26 22 19 17 19 21 14 8 8 12 12 11 9 9 12 15 18 18 22 25 21 22 29 32 34
27 17 11 16 22 13 7 10 14 15 15 17 18 16 14 13 12 12 13 14 14 13 13 16 17 18 20 19 18 19 17 20 25 23 26 29 26 21 14 10 11 13 15 12 14 12 9 16 22 19 13 13 16 19 25 33 36 34 34 37 39 34 30 28 25 20 16 17 22 19 12 13 17 11 8 9 12 12 15 18 16 20 24 21 21 28 31 34
27 18 14 17 13 6 6 11 13 15 16 18 19 16 15 14 12 12 13 12 11 12 14 19 20 17 18 19 18 19 17 17 20 22 25 29 29 22 11 5 10 13 17 17 13 7 11 14 19 21 21 17 12 11 16 23 30 34 33 33 39 38 32 28 26 23 17 16 21 21 15 15 16 10 9 12 13 12 17 20 18 21 24 22 23 28 29 30
27 15 13 18 13 5 8 12 12 15 17 19 20 17 16 16 13 12 12 11 13 15 17 20 18 15 18 21 20 18 16 17 17 19 23 25 26 22 13 6 11 11 10 13 8 9 14 15 19 22 24 21 12 7 3 5 15 28 34 33 36 39 36 30 27 25 20 15 17 20 15 12 14 14 14 17 14 11 18 21 17 21 20 16 21 27 27 28
30 17 11 14 15 13 13 14 15 18 18 18 19 18 17 15 14 13 13 13 15 18 20 18 14 13 17 21 20 18 16 17 16 16 20 22 23 23 20 12 7 3 3 2 6 9 11 14 18 20 24 23 18 14 9 7 6 12 26 34 35 37 39 36 29 25 22 17 15 19 15 9 15 18 18 21 18 14 18 21 16 16 14 12 16 22 26 29
33 24 16 14 17 18 18 17 16 18 18 18 19 18 16 14 13 14 15 14 15 18 19 16 13 14 17 19 21 18 15 16 16 15 15 15 16 19 22 15 1 7 8 14 8 7 9 12 13 16 24 25 22 20 16 13 12 11 16 30 35 34 37 37 32 26 23 19 16 18 14 10 16 19 17 22 22 15 17 19 15 13 11 11 16 18 18 21
33 26 20 18 19 18 18 17 15 15 16 16 17 16 14 14 14 15 16 16 18 20 17 15 15 16 16 18 21 19 15 16 17 16 14 13 13 14 17 14 4 6 14 20 15 9 8 10 10 12 20 23 22 23 20 16 14 15 16 20 31 34 35 37 35 29 26 22 18 20 18 12 15 19 21 26 24 17 17 18 16 15 15 15 17 15 13 17
33 24 19 20 20 18 18 16 14 14 15 15 16 16 15 15 16 18 17 16 18 21 17 14 16 17 16 17 19 20 20 18 17 16 14 15 16 14 13 12 8 7 12 20 22 15 10 8 9 11 16 18 18 21 22 16 12 16 19 16 23 27 30 36 36 31 28 25 21 23 24 19 17 22 26 26 22 19 19 16 12 13 15 16 16 12 13 17
33 23 16 18 21 20 20 19 16 15 14 12 13 16 17 18 17 18 19 17 17 19 18 15 17 19 19 19 19 18 20 20 18 17 16 17 17 16 17 15 10 14 18 21 21 16 14 12 8 8 14 19 18 17 20 15 8 15 21 16 15 17 21 30 35 33 29 27 25 22 23 24 20 20 25 22 16 16 14 10 9 10 11 12 12 8 10 14
Wind_Direction
315 313 311 310 308 307 306 304 304 302 303 303 303 304 303 302 299 296 293 291 290 289 289 288 287 285 282 276 270 266 260 255 254 253 250 241 240 244 249 250 245 237 227 222 219 218 218 220 221 221 220 223 229 226 214 227 233 234 245 246 265 288 313 278 152 76 15 165 152 147 144 133 127 123 126 124 124 127 128 123 120 126 157 168 161 167 166 162
323 321 319 318 314 313 310 308 306 304 302 302 302 302 302 301 298 296 294 292 290 288 288 287 286 285 282 280 276 271 267 261 255 252 245 242 244 243 245 246 243 239 232 226 222 218 217 217 218 219 220 219 225 231 221 223 227 224 239 248 251 269 268 190 156 316 282 188 146 162 159 146 138 132 137 133 129 134 134 130 136 150 172 180 165 167 173 168
329 328 327 326 324 321 318 315 312 308 305 303 302 301 300 298 296 295 293 293 292 289 287 286 284 282 282 280 279 276 272 267 260 253 225 237 242 238 239 241 240 237 231 226 224 221 218 216 217 218 218 216 218 227 229 224 225 225 233 244 249 262 255 207 203 227 238 259 152 159 171 157 149 144 147 143 136 139 144 138 139 154 169 176 173 167 173 174
334 333 332 331 330 328 326 323 319 315 311 307 305 302 299 297 295 293 292 292 292 291 289 285 282 280 281 279 279 279 276 278 272 256 231 235 240 235 233 233 232 230 226 220 218 218 216 213 214 216 214 214 216 220 226 221 219 225 228 240 248 260 267 243 233 213 214 250 138 136 175 160 159 165 156 154 144 144 156 147 146 161 170 167 170 166 169 177
335 334 334 333 332 331 330 327 324 321 316 313 310 306 302 297 295 292 291 292 291 291 288 284 281 277 278 277 277 277 279 290 277 259 231 228 236 237 231 227 224 219 217 215 212 211 207 206 208 209 211 213 215 218 224 221 219 228 229 239 251 261 265 241 236 206 131 203 273 174 180 160 163 166 155 167 158 153 163 164 169 181 185 162 161 165 169 176
333 332 331 331 330 330 329 327 325 323 320 318 315 312 307 301 297 293 291 291 288 288 286 283 280 276 277 275 274 274 268 258 263 269 245 223 228 234 233 224 221 216 212 211 207 204 200 198 204 208 210 214 216 219 224 221 220 231 233 236 251 266 261 228 233 213 146 227 251 235 193 170 174 175 164 172 150 149 163 173 190 197 191 169 152 164 172 177
329 327 326 326 326 325 324 323 322 320 320 319 318 316 312 307 301 296 292 289 287 286 283 281 278 276 276 274 273 271 263 256 265 274 263 235 225 228 232 224 220 219 213 214 204 197 200 198 203 208 211 216 218 219 224 223 222 230 236 236 237 254 260 244 257 240 188 222 247 283 215 183 188 182 168 166 132 137 158 175 198 196 187 179 160 164 171 173
325 323 322 322 321 320 318 318 317 316 316 315 317 316 314 310 305 301 295 290 287 284 281 279 276 276 275 274 273 268 269 261 251 260 255 240 230 224 229 225 221 222 215 218 207 194 201 203 204 208 213 218 219 221 224 226 227 229 234 239 233 235 247 247 258 241 197 216 246 241 210 194 197 193 176 176 157 145 158 179 197 187 179 181 168 168 170 170
323 321 320 319 318 317 315 314 313 312 312 311 312 312 312 310 307 304 299 294 289 284 280 277 274 274 273 272 271 267 269 242 229 250 256 242 237 228 226 224 220 223 218 218 208 196 203 207 207 208 214 221 223 225 226 228 230 229 232 237 238 237 233 236 252 255 215 222 238 231 225 213 210 215 183 176 173 157 160 178 190 172 165 175 172 172 175 177
322 320 318 317 316 314 313 312 310 309 308 307 307 307 307 305 305 304 300 298 292 286 281 276 273 271 270 268 267 263 263 261 247 254 262 250 239 229 225 222 219 221 218 217 206 197 205 209 209 211 218 225 228 230 228 230 233 232 234 237 238 241 237 236 249 252 232 228 230 229 228 214 215 230 189 178 181 169 164 174 179 164 154 160 169 179 181 184
321 319 317 316 315 313 312 310 309 308 305 304 303 302 302 300 300 300 299 298 294 291 283 276 273 269 268 264 263 264 259 259 257 259 265 260 243 229 228 223 220 219 214 217 207 198 206 209 208 214 221 226 228 235 235 233 236 236 237 240 240 242 242 239 240 235 230 230 228 229 233 223 215 217 201 185 179 176 172 172 172 169 165 156 162 183 189 189
321 319 317 316 314 313 311 309 308 307 304 302 301 300 298 296 296 295 295 294 293 292 286 280 274 269 266 261 261 267 254 243 246 251 257 261 254 233 226 223 220 218 215 214 204 200 208 210 210 215 221 226 228 234 241 237 237 239 237 239 242 242 242 239 235 231 229 229 225 226 234 229 217 214 209 191 180 179 176 173 173 172 173 169 167 182 193 193
321 320 319 317 315 314 311 309 308 306 304 301 299 298 296 294 292 291 290 289 289 289 286 282 276 271 264 261 260 255 247 241 244 244 241 252 259 239 220 221 218 213 212 206 197 203 211 212 214 219 221 227 228 228 239 241 235 237 236 236 239 240 240 237 233 231 229 229 222 219 230 227 218 216 209 191 182 177 174 176 178 174 176 178 177 183 193 197
325 323 321 319 317 314 312 310 308 306 304 302 299 297 294 293 289 288 286 285 285 284 284 282 278 273 265 262 260 248 244 242 245 246 243 244 249 240 221 216 215 207 206 195 191 208 215 215 219 223 226 228 230 233 241 245 234 232 233 232 235 239 241 236 231 229 227 227 217 217 229 228 222 216 206 194 184 180 177 176 176 175 176 178 184 195 195 200
329 327 325 323 320 318 316 313 310 308 305 303 300 297 295 292 289 285 282 281 280 279 279 278 276 275 271 267 258 248 242 238 243 245 246 243 239 235 225 216 211 207 208 194 190 210 217 217 220 223 227 228 231 237 240 241 234 228 228 227 228 235 242 238 230 223 221 222 213 218 229 229 231 219 202 194 185 182 179 177 177 178 179 180 193 207 200 203
331 329 328 325 323 322 319 316 314 311 308 306 303 299 296 293 290 285 281 278 276 277 276 273 274 273 273 271 258 251 247 240 243 245 241 240 236 228 226 220 210 208 212 202 194 207 217 217 220 223 225 227 227 231 238 238 231 224 224 227 225 227 235 239 233 219 214 216 211 217 226 224 231 220 198 190 184 183 184 186 188 186 185 188 201 215 205 199
335 334 333 331 330 328 325 323 319 315 312 309 306 302 298 295 292 286 281 277 273 272 271 270 271 269 270 269 264 262 257 242 233 238 238 237 232 219 216 216 208 208 212 210 203 204 214 215 216 221 222 224 223 222 229 231 225 217 218 225 227 225 227 231 234 221 210 211 211 214 223 221 220 207 190 185 185 189 192 193 191 188 186 191 206 218 215 206
345 343 342 341 340 339 337 333 329 325 319 314 311 307 302 300 296 289 282 278 273 269 268 269 265 265 273 266 258 253 256 249 230 230 235 236 227 206 204 207 202 205 208 211 211 206 211 213 212 219 220 220 219 214 219 223 220 215 215 219 225 229 229 227 228 220 208 209 212 213 218 218 212 194 187 191 197 197 198 194 194 199 190 191 211 220 219 214
351 349 348 348 346 346 346 342 340 336 329 324 320 314 306 299 296 290 283 277 273 265 262 265 255 247 241 234 241 237 239 243 232 228 228 232 225 202 200 203 200 202 203 207 209 204 205 209 211 216 217 216 215 214 217 220 220 221 219 218 222 226 231 230 225 218 208 209 215 214 215 216 213 203 198 205 207 201 200 193 198 212 196 191 214 224 219 216
352 350 349 350 348 346 348 345 343 340 337 334 327 324 317 306 303 295 285 277 273 265 250 250 254 248 236 231 232 240 241 235 229 227 225 227 220 199 197 200 199 201 203 205 206 202 201 209 214 215 215 214 215 216 219 222 225 230 227 223 224 224 229 232 226 217 209 210 215 215 217 216 214 212 206 205 203 203 206 200 204 219 206 199 215 223 221 221
351 350 350 351 349 347 350 349 346 343 341 337 331 334 333 325 319 307 292 276 264 267 259 247 250 251 240 231 222 210 238 240 231 224 222 223 209 194 197 196 195 202 205 203 203 204 206 216 220 217 216 215 217 218 220 223 226 234 238 233 229 225 227 232 228 215 206 212 216 214 218 219 214 213 210 207 206 205 207 209 210 214 210 209 214 218 221 221
349 351 351 352 352 349 352 354 351 347 343 339 338 339 338 334 328 317 306 287 262 257 264 253 244 248 242 234 227 214 215 223 223 218 215 214 202 194 198 196 195 202 202 199 203 203 210 222 222 217 217 217 219 219 219 223 226 231 238 241 236 227 223 228 230 218 204 210 215 211 219 222 217 216 214 212 213 211 211 215 215 214 214 211 210 216 220 219
347 349 350 353 352 348 351 355 354 351 348 347 347 343 338 334 328 322 313 299 279 256 260 259 251 251 245 234 227 218 219 218 215 213 209 207 201 195 197 198 197 201 201 200 203 202 212 224 223 215 217 218 219 220 218 221 225 228 231 236 238 232 224 223 224 217 208 214 218 213 219 224 222 222 221 219 218 218 216 215 218 226 225 214 213 221 224 223
345 345 346 349 350 347 347 350 354 353 351 350 347 342 338 332 329 324 315 306 290 269 263 265 256 252 247 237 226 222 226 227 217 209 209 208 203 197 199 201 199 202 205 203 205 210 217 225 220 213 216 217 218 220 217 218 223 226 228 229 233 233 231 231 225 214 208 212 217 218 222 224 223 225 224 222 221 219 215 211 216 227 227 222 227 231 227 226
343 343 343 345 348 347 345 346 352 354 349 348 344 340 336 331 330 325 319 314 300 287 279 270 259 253 247 233 225 224 226 231 221 206 211 212 204 200 199 201 205 206 207 206 209 218 224 224 217 212 214 216 218 219 218 217 221 225 227 227 229 231 231 236 235 221 210 206 210 220 229 225 221 224 225 222 222 218 212 208 210 220 224 226 232 233 230 229
343 344 342 343 345 346 346 345 349 351 347 344 341 337 335 332 329 327 326 316 305 307 298 269 263 255 238 223 222 221 222 233 226 203 207 215 208 203 201 201 208 211 208 208 213 223 226 223 219 215 213 215 217 219 218 216 221 226 225 225 227 231 232 233 234 232 224 212 210 216 223 227 223 223 223 222 222 218 212 208 206 210 216 221 224 226 230 234
342 343 342 342 343 344 346 345 346 349 344 341 340 337 336 334 329 331 332 312 303 324 301 236 243 231 223 219 219 211 210 235 229 206 201 213 209 203 206 206 207 211 207 206 217 224 223 219 218 217 213 214 216 218 216 214 219 226 223 220 223 227 232 232 232 237 236 227 218 211 212 224 232 227 224 222 224 221 216 215 215 210 207 210 213 219 229 240
340 341 342 343 343 344 346 344 345 348 344 341 340 337 335 331 330 335 336 296 288 9 180 215 214 209 203 208 216 212 210 229 228 213 199 206 212 204 207 210 207 211 205 204 218 221 217 217 216 215 214 215 216 216 214 212 218 223 220 219 221 222 227 232 236 242 242 240 233 215 207 215 229 226 225 225 226 226 220 218 221 214 206 204 208 219 230 239
339 339 342 345 344 345 345 343 345 347 346 343 337 335 332 329 330 331 308 256 266 348 -0 271 240 215 198 195 206 212 215 210 224 227 202 200 212 207 209 213 209 214 212 211 222 222 218 220 216 216 218 217 217 216 213 213 216 218 218 221 222 220 221 226 233 240 243 246 244 228 216 218 229 223 221 221 222 226 224 219 221 216 208 204 206 216 224 226
339 340 343 344 345 347 348 348 346 343 343 339 335 333 326 327 325 290 260 243 274 340 53 40 24 201 207 206 205 211 220 215 216 239 208 200 208 208 211 215 212 218 220 219 226 226 224 223 217 218 220 218 218 216 213 214 214 212 215 221 222 217 216 219 225 231 239 242 239 236 228 228 243 233 224 221 219 223 225 220 220 216 208 204 203 211 218 219
341 344 343 344 349 349 351 355 351 343 341 336 329 329 326 322 284 251 249 241 278 317 53 26 17 213 223 240 226 221 225 221 215 218 205 197 202 205 208 212 212 218 223 222 224 226 227 226 218 217 220 217 216 216 214 212 210 208 208 213 216 211 209 214 217 219 230 236 228 231 230 229 236 234 232 232 221 220 224 221 218 215 207 201 200 205 214 220
344 345 345 346 346 341 347 357 356 351 348 339 329 332 332 306 253 233 251 264 292 330 343 338 326 305 309 300 262 233 225 223 215 212 205 198 199 202 204 206 204 208 217 218 217 219 223 226 221 216 216 214 211 211 211 206 203 204 203 205 210 201 195 209 213 212 225 233 225 224 225 231 238 235 233 237 228 219 222 223 222 215 206 202 202 203 210 220
344 345 348 344 340 346 356 359 357 356 354 350 347 339 321 289 267 255 262 280 321 327 333 332 310 305 322 307 282 251 230 222 213 212 211 202 203 206 207 208 205 204 212 213 210 212 218 223 222 218 212 211 209 206 204 199 197 200 200 201 206 195 183 205 211 216 227 228 225 222 223 230 238 238 234 233 232 225 221 220 220 213 207 205 204 202 205 215
343 347 349 343 349 360 3 358 353 357 4 7 358 332 306 277 279 283 284 320 344 313 323 333 311 301 311 292 278 269 248 230 214 213 213 206 206 209 209 210 210 210 213 214 211 211 213 216 216 215 209 206 208 208 204 198 195 201 201 201 206 204 199 202 206 217 224 223 219 217 223 231 233 235 233 231 230 229 225 220 217 214 208 205 202 202 203 209
343 350 348 349 4 2 353 351 348 357 13 9 348 316 297 280 308 344 345 351 348 325 329 336 318 304 300 284 273 265 257 252 227 213 214 212 211 212 211 211 211 211 212 215 214 212 217 221 215 212 210 205 206 207 205 200 198 200 200 205 209 206 207 214 216 218 221 225 216 212 221 230 236 239 233 229 228 225 226 223 221 215 204 200 203 207 205 203
348 350 344 356 12 355 344 346 345 3 22 4 343 318 285 279 330 2 354 342 338 334 336 337 327 309 294 280 271 272 286 279 247 221 219 218 218 218 216 215 214 211 211 214 214 211 216 225 216 208 210 210 205 204 203 203 200 194 198 207 210 206 211 221 225 219 219 226 219 216 223 226 233 242 230 223 226 222 220 221 224 215 201 203 208 206 201 196
353 345 339 358 5 345 344 342 341 11 21 345 331 321 291 280 307 340 339 332 333 334 335 331 324 314 306 303 301 314 327 311 266 237 224 217 223 224 220 220 217 214 214 215 220 220 220 225 215 205 207 209 205 201 204 208 204 195 200 206 206 206 214 225 234 222 215 227 220 217 224 220 217 227 224 219 221 222 216 214 219 215 203 206 207 203 201 196
354 346 343 347 340 336 341 336 343 12 4 322 320 317 304 296 306 321 327 328 328 328 328 320 310 308 310 313 313 320 328 319 306 293 248 219 219 222 221 225 221 218 218 218 224 227 226 230 219 206 206 203 198 197 203 210 210 206 204 202 202 204 207 214 227 229 216 228 221 218 229 225 213 213 219 216 213 219 219 210 211 214 208 205 202 201 204 200
351 4 353 314 312 328 336 333 347 -0 334 313 320 317 313 312 313 318 322 324 324 323 320 313 309 306 303 309 312 315 319 317 318 319 296 244 223 212 212 215 213 213 214 217 224 226 226 235 226 208 202 197 194 196 201 206 208 213 214 203 202 209 207 205 215 227 228 224 215 223 233 234 224 213 209 212 208 211 218 210 206 210 208 202 197 198 203 206
345 21 4 297 303 318 332 347 350 333 315 313 317 313 314 315 312 317 320 318 321 320 314 312 312 306 302 307 310 311 313 312 314 315 310 307 303 212 205 198 197 202 197 203 216 222 225 232 234 213 199 195 196 199 201 200 200 207 213 205 199 205 210 209 211 218 228 237 222 218 223 234 234 216 203 210 207 203 212 210 204 207 205 199 200 202 205 209
345 8 326 295 304 319 350 6 337 306 313 316 315 313 313 313 311 314 313 311 317 318 312 312 310 306 306 307 310 310 307 304 305 306 303 316 353 343 266 279 319 213 198 198 205 213 220 223 231 228 206 200 202 202 202 202 200 203 208 207 200 198 203 206 208 211 219 234 240 233 236 244 235 208 199 205 200 195 204 206 202 204 202 200 206 210 211 211
347 341 325 314 318 335 2 3 315 311 317 311 316 317 312 313 313 312 310 311 316 312 308 309 307 305 304 304 307 307 304 302 298 296 301 313 340 346 328 330 326 239 233 242 210 208 218 220 226 233 223 211 206 202 203 203 204 205 206 209 205 199 202 205 204 201 207 221 232 243 248 329 71 165 178 182 184 186 195 199 197 199 201 203 203 207 213 210
349 346 358 327 299 311 338 341 315 314 312 309 316 316 311 314 313 310 311 316 319 313 309 309 309 305 300 302 307 305 306 303 289 285 305 316 328 338 334 330 317 305 338 293 214 204 220 225 226 235 247 237 210 199 203 204 206 208 208 209 209 204 202 206 210 201 202 210 213 228 237 153 101 144 162 164 174 180 186 190 191 192 196 203 200 204 212 202
349 357 13 310 291 300 325 334 321 314 310 312 314 315 315 315 313 310 312 316 316 313 310 309 312 308 301 302 304 302 304 296 287 297 316 314 312 312 320 334 323 313 328 286 209 194 211 221 223 229 250 241 205 192 197 200 205 212 209 206 209 210 203 203 211 206 205 209 202 210 224 155 132 145 158 171 186 185 182 183 189 189 190 198 198 200 204 193
344 345 346 308 301 313 331 324 321 315 312 314 315 317 315 313 315 311 309 313 314 314 313 313 314 310 306 308 303 299 296 284 288 307 312 302 301 303 311 345 340 315 302 263 205 194 220 229 226 223 222 215 197 193 197 198 202 211 212 205 205 211 206 200 206 207 207 204 198 209 212 150 136 144 149 163 181 183 174 174 179 179 183 195 196 194 199 196
342 335 331 320 319 349 337 318 316 312 312 315 314 314 313 313 317 313 312 316 313 311 313 312 312 310 310 312 309 305 298 286 292 304 304 298 299 303 308 350 359 329 286 252 210 228 281 256 229 227 229 218 190 178 195 200 202 207 212 206 201 209 210 201 203 208 204 194 196 209 200 151 147 155 142 153 170 171 170 175 174 171 180 191 187 187 195 199
344 329 320 323 324 328 311 307 310 309 310 311 308 307 310 310 311 314 316 313 311 313 315 315 316 318 315 314 316 316 306 300 301 294 290 296 301 299 285 298 357 348 274 247 244 285 290 259 233 232 238 233 208 170 176 230 213 208 211 207 199 204 208 206 205 205 199 191 192 197 191 168 167 161 145 150 153 148 161 168 164 163 173 178 174 181 184 180
343 326 301 304 306 307 305 303 307 307 305 303 301 301 304 304 306 312 314 313 316 315 313 316 322 319 314 312 314 316 310 311 309 290 281 288 297 294 280 288 353 71 147 357 303 287 292 269 250 244 243 241 234 232 252 292 276 224 215 210 202 200 205 208 209 202 195 196 190 181 179 171 160 151 146 150 143 131 148 155 149 152 157 146 150 168 172 166
341 328 306 290 291 301 308 308 306 303 301 301 301 302 303 302 304 309 313 317 314 306 306 313 317 313 310 311 311 311 313 316 308 295 292 295 298 295 288 290 295 130 67 25 352 297 299 273 252 245 243 244 244 243 250 264 277 282 242 215 203 200 203 207 211 205 197 198 192 180 175 161 154 152 149 151 147 129 130 141 144 144 150 150 144 151 169 179
341 330 317 304 293 291 300 309 309 301 299 301 302 303 302 301 304 307 314 316 306 300 303 307 307 308 309 309 309 305 309 313 301 292 300 305 301 295 288 291 304 86 46 18 357 342 319 269 250 251 250 251 250 243 242 248 258 283 282 228 202 200 201 204 209 209 200 197 193 186 179 166 163 166 158 155 157 147 130 136 144 134 131 144 143 137 158 186
338 330 315 307 300 289 286 297 305 302 300 301 302 301 299 299 303 306 307 304 297 297 299 300 304 307 303 300 303 304 306 307 298 291 295 295 290 282 266 271 307 359 8 354 345 348 346 304 267 259 259 257 252 237 229 233 251 272 277 242 205 205 204 201 205 209 202 194 192 192 185 173 164 166 164 162 165 160 141 133 140 130 123 136 143 139 144 156
337 330 312 299 297 291 282 284 293 296 292 291 298 303 301 297 300 303 302 298 296 300 303 303 301 301 300 298 296 297 301 301 295 294 291 282 275 268 254 250 280 313 314 322 330 337 345 335 295 272 266 253 249 239 223 219 243 257 251 232 211 219 215 202 201 207 207 199 194 195 187 178 168 160 163 166 167 165 149 133 146 141 132 148 155 152 148 143